Weather History for HEAR - March, 2014

Change the Weather History Date:

Saturday, March 1, 2014

  Actual Average Record
Temperature  
Mean Temperature 62 °F -  
Max Temperature 81 °F 70 °F - ()
Min Temperature 44 °F 49 °F - ()
Degree Days  
Heating Degree Days 2    
Growing Degree Days 12 (Base 50)    
Moisture  
Dew Point 48 °F    
Average Humidity 83    
Maximum Humidity 100    
Minimum Humidity 14    
Precipitation  
Precipitation 0.00 in 0.02 in - ()
Sea Level Pressure  
Sea Level Pressure 29.90 in    
Wind  
Wind Speed 2 mph ()    
Max Wind Speed 14 mph    
Max Gust Speed -    
Visibility 5.0 miles    
Events      
T = Trace of Precipitation, MM = Missing Value Source: Averaged Metar Reports

Daily Weather History Graph

Daily Weather History Graph

Search for Another Location

Airport or City:

Trip Planner

Search our weather history database for the weather conditions in past years. The results will help you decide how hot, cold, wet, or windy it might be!

Date:

Astronomy

Mar. 01, 2014 Rise Set
Actual Time 6:11 AM EET 5:42 PM EET
Civil Twilight 5:47 AM EET 6:07 PM EET
Nautical Twilight 5:19 AM EET 6:35 PM EET
Astronomical Twilight 4:51 AM EET 7:03 PM EET
Moon 5:54 AM EET (3/1) 6:01 PM EET (3/1)
Length of Visible Light 12h 19m
Length of Day
11h 31m
New Moon, 0% of the Moon is Illuminated
Mar 1
New Moon
Mar 8
First Quarter
Mar 16
Full
Mar 24
Last Quarter
Mar 30
New

Hourly Weather History & Observations

Time (EET) Temp. Windchill Dew Point Humidity Pressure Visibility Wind Dir Wind Speed Gust Speed Precip Events Conditions
12:00 AM 48.2 °F - 46.4 °F 93% 30.04 in - ESE 2.3 mph - N/A   Clear
1:00 AM 46.4 °F - 44.6 °F 93% 30.04 in - SSE 2.3 mph - N/A   Clear
2:00 AM 46 °F - 46 °F 98% 30.03 in 6 mi Calm Calm - -  
2:00 AM 46.4 °F - 46.4 °F 100% 30.01 in - Calm Calm - N/A   Clear
3:00 AM 46.4 °F - 46.4 °F 100% 30.01 in - Calm Calm - N/A   Clear
4:00 AM 44.6 °F - 44.6 °F 100% 30.01 in - Calm Calm - N/A   Clear
5:00 AM 44 °F - 44 °F 100% 30.01 in 6 mi Calm Calm - -  
5:00 AM 44.6 °F - 44.6 °F 100% 30.01 in - Calm Calm - N/A   Clear
6:00 AM 44.6 °F 43.1 °F 44.6 °F 100% 30.01 in 3.7 mi East 3.5 mph - N/A   Unknown
2:00 PM 76 °F - 38 °F 15% 29.88 in 6 mi SSE 13.8 mph - -   Clear
5:00 PM 78 °F - 38 °F 14% 29.81 in 6 mi SSE 6.9 mph - -   Clear
5:00 PM 77.0 °F - 37.4 °F 24% 29.80 in - SSE 6.9 mph - N/A   Clear
6:00 PM 66.2 °F - 57.2 °F 73% 29.80 in - NW 6.9 mph - N/A   Clear
7:00 PM 62.6 °F - 42.8 °F 48% 29.80 in - NNE 6.9 mph - N/A   Clear
8:00 PM 60 °F - 60 °F 100% 29.81 in 6 mi NNE 3.5 mph - -  
8:00 PM 60.8 °F - 60.8 °F 100% 29.80 in - NNE 3.5 mph - N/A   Clear
9:00 PM 59.0 °F - 59.0 °F 100% 29.77 in - NNE 3.5 mph - N/A   Clear
10:00 PM 55.4 °F - 55.4 °F 100% 29.77 in 3.7 mi ESE 2.3 mph - N/A   Unknown
11:00 PM 54 °F - 54 °F 100% 29.77 in 4 mi Calm Calm - -   Mist
11:00 PM 53.6 °F - 53.6 °F 100% 29.74 in 3.7 mi Calm Calm - N/A   Unknown